Warsaw, IN

3:03 AM EDT on May 01, 2017 (GMT -0400)
Warsaw Municipal

Weather History for KASW - January, 2013

Change the Weather History Date:

Monday, January 14, 2013

  Actual Average Record
Temperature  
Mean Temperature 19 °F -  
Max Temperature 23 °F 29 °F 61 °F (1950)
Min Temperature 15 °F 15 °F -8 °F (1957)
Degree Days  
Heating Degree Days 46    
Moisture  
Dew Point 15 °F    
Average Humidity 83    
Maximum Humidity 93    
Minimum Humidity 79    
Precipitation  
Precipitation 0.00 in - - ()
Sea Level Pressure  
Sea Level Pressure 30.37 in    
Wind  
Wind Speed 9 mph (WNW)    
Max Wind Speed 15 mph    
Max Gust Speed -    
Visibility 9 miles    
Events Snow    
Averages and records for this station are not official NWS values.
T = Trace of Precipitation, MM = Missing Value Source: NWS Daily Summary

Daily Weather History Graph

Daily Weather History Graph

Search for Another Location

Airport or City:

Trip Planner

Search our weather history database for the weather conditions in past years. The results will help you decide how hot, cold, wet, or windy it might be!

Date:

Astronomy

Jan. 14, 2013 Rise Set
Actual Time 8:07 AM EST 5:38 PM EST
Civil Twilight 7:36 AM EST 6:08 PM EST
Nautical Twilight 7:02 AM EST 6:42 PM EST
Astronomical Twilight 6:29 AM EST 7:15 PM EST
Moon 9:37 AM EST (1/14) 9:25 PM EST (1/14)
Length of Visible Light 10h 32m
Length of Day
9h 31m
Waxing Crescent, 11% of the Moon is Illuminated
Jan 14
Waxing Crescent
Jan 18
First Quarter
Jan 26
Full
Feb 3
Last Quarter
Feb 10
New

Hourly Weather History & Observations

Time (EST) Temp. Windchill Dew Point Humidity Pressure Visibility Wind Dir Wind Speed Gust Speed Precip Events Conditions
12:35 AM 21.2 °F 7.8 °F 17.6 °F 86% 30.19 in 10.0 mi West 15.0 mph - N/A   Overcast
1:35 AM 19.4 °F 8.6 °F 15.8 °F 86% 30.21 in 10.0 mi WNW 9.2 mph - N/A   Overcast
1:55 AM 19.4 °F 7.2 °F 15.8 °F 86% 30.22 in 10.0 mi West 11.5 mph - N/A   Overcast
2:15 AM 19.4 °F 7.2 °F 14.0 °F 80% 30.24 in 10.0 mi West 11.5 mph - N/A Snow Light Snow
2:35 AM 19.4 °F 6.0 °F 14.0 °F 80% 30.26 in 10.0 mi West 13.8 mph - N/A Snow Light Snow
2:55 AM 17.6 °F 5.7 °F 12.2 °F 79% 30.27 in 10.0 mi WNW 10.4 mph - N/A   Overcast
3:15 AM 17.6 °F 5.7 °F 12.2 °F 79% 30.28 in 10.0 mi WNW 10.4 mph - N/A Snow Light Snow
3:35 AM 17.6 °F 5.0 °F 14.0 °F 86% 30.28 in 10.0 mi WNW 11.5 mph - N/A Snow Light Snow
3:55 AM 17.6 °F 6.4 °F 12.2 °F 79% 30.29 in 10.0 mi WNW 9.2 mph - N/A Snow Light Snow
4:15 AM 17.6 °F 3.7 °F 12.2 °F 79% 30.30 in 10.0 mi WNW 13.8 mph - N/A Snow Light Snow
4:35 AM 17.6 °F 4.3 °F 12.2 °F 79% 30.30 in 10.0 mi WNW 12.7 mph - N/A Snow Light Snow
4:55 AM 15.8 °F 0.9 °F 10.4 °F 79% 30.32 in 10.0 mi WNW 15.0 mph - N/A   Overcast
5:15 AM 15.8 °F 1.4 °F 12.2 °F 86% 30.31 in 10.0 mi WNW 13.8 mph - N/A   Overcast
5:35 AM 17.6 °F 5.7 °F 12.2 °F 79% 30.32 in 10.0 mi WNW 10.4 mph - N/A   Overcast
5:55 AM 17.6 °F 5.0 °F 12.2 °F 79% 30.32 in 10.0 mi WNW 11.5 mph - N/A   Overcast
6:15 AM 17.6 °F 5.7 °F 12.2 °F 79% 30.33 in 10.0 mi West 10.4 mph - N/A   Overcast
6:35 AM 17.6 °F 7.3 °F 12.2 °F 79% 30.33 in 10.0 mi West 8.1 mph - N/A Snow Light Snow
6:55 AM 17.6 °F 6.4 °F 12.2 °F 79% 30.34 in 10.0 mi West 9.2 mph - N/A   Overcast
7:15 AM 17.6 °F 6.4 °F 12.2 °F 79% 30.35 in 10.0 mi West 9.2 mph - N/A   Overcast
7:35 AM 17.6 °F 5.0 °F 12.2 °F 79% 30.37 in 10.0 mi West 11.5 mph - N/A   Overcast
7:55 AM 17.6 °F 6.4 °F 12.2 °F 79% 30.37 in 10.0 mi West 9.2 mph - N/A Snow Light Snow
8:15 AM 17.6 °F 5.7 °F 12.2 °F 79% 30.38 in 10.0 mi West 10.4 mph - N/A Snow Light Snow
8:35 AM 17.6 °F 6.4 °F 12.2 °F 79% 30.39 in 10.0 mi WNW 9.2 mph - N/A   Overcast
8:55 AM 17.6 °F 9.3 °F 12.2 °F 79% 30.40 in 7.0 mi West 5.8 mph - N/A Snow Light Snow
9:15 AM 17.6 °F 8.2 °F 14.0 °F 86% 30.40 in 4.0 mi West 6.9 mph - N/A Snow Light Snow
9:35 AM 17.6 °F 9.3 °F 14.0 °F 86% 30.41 in 4.0 mi West 5.8 mph - N/A Snow Light Snow
9:55 AM 19.4 °F 10.4 °F 14.0 °F 80% 30.40 in 3.0 mi WNW 6.9 mph - N/A Snow Light Snow
10:15 AM 19.4 °F 11.5 °F 14.0 °F 80% 30.40 in 3.0 mi NW 5.8 mph - N/A Snow Light Snow
10:35 AM 19.4 °F 10.4 °F 15.8 °F 86% 30.39 in 2.5 mi NW 6.9 mph - N/A Snow Light Snow
10:55 AM 19.4 °F 11.5 °F 15.8 °F 86% 30.39 in 3.0 mi NW 5.8 mph - N/A Snow Light Snow
11:15 AM 21.2 °F 13.6 °F 15.8 °F 80% 30.38 in 4.0 mi NNW 5.8 mph - N/A Snow Light Snow
11:35 AM 21.2 °F 12.6 °F 15.8 °F 80% 30.38 in 5.0 mi North 6.9 mph - N/A Snow Light Snow
11:55 AM 21.2 °F 13.6 °F 17.6 °F 86% 30.38 in 7.0 mi North 5.8 mph - N/A   Overcast
12:15 PM 21.2 °F 14.9 °F 17.6 °F 86% 30.38 in 10.0 mi NW 4.6 mph - N/A Snow Light Snow
12:55 PM 23.0 °F 18.4 °F 17.6 °F 80% 30.38 in 10.0 mi North 3.5 mph - N/A   Overcast
1:15 PM 23.0 °F - 17.6 °F 80% 30.39 in 10.0 mi Calm Calm - N/A   Overcast
1:35 PM 23.0 °F 17.0 °F 17.6 °F 80% 30.39 in 10.0 mi West 4.6 mph - N/A   Overcast
2:15 PM 23.0 °F 18.4 °F 17.6 °F 80% 30.38 in 10.0 mi WNW 3.5 mph - N/A Snow Light Snow
2:55 PM 23.0 °F 18.4 °F 17.6 °F 80% 30.40 in 10.0 mi West 3.5 mph - N/A   Overcast
3:15 PM 23.0 °F 18.4 °F 17.6 °F 80% 30.41 in 10.0 mi West 3.5 mph - N/A   Overcast
3:35 PM 23.0 °F 15.8 °F 17.6 °F 80% 30.42 in 10.0 mi West 5.8 mph - N/A   Overcast
3:55 PM 23.0 °F 17.0 °F 17.6 °F 80% 30.42 in 10.0 mi WSW 4.6 mph - N/A   Overcast
4:15 PM 23.0 °F 17.0 °F 17.6 °F 80% 30.44 in 10.0 mi WSW 4.6 mph - N/A   Overcast
4:35 PM 23.0 °F 15.8 °F 17.6 °F 80% 30.43 in 10.0 mi West 5.8 mph - N/A Snow Light Snow
4:55 PM 23.0 °F 15.8 °F 17.6 °F 80% 30.44 in 10.0 mi West 5.8 mph - N/A   Overcast
5:35 PM 23.0 °F 15.8 °F 17.6 °F 80% 30.44 in 10.0 mi WSW 5.8 mph - N/A   Overcast
5:55 PM 23.0 °F 15.8 °F 17.6 °F 80% 30.44 in 10.0 mi West 5.8 mph - N/A   Overcast
6:15 PM 23.0 °F 15.8 °F 17.6 °F 80% 30.43 in 10.0 mi West 5.8 mph - N/A   Overcast
6:35 PM 23.0 °F 17.0 °F 17.6 °F 80% 30.43 in 10.0 mi West 4.6 mph - N/A   Overcast
6:55 PM 21.2 °F - 17.6 °F 86% 30.42 in 10.0 mi Calm Calm - N/A   Overcast
7:15 PM 21.2 °F 16.4 °F 17.6 °F 86% 30.41 in 10.0 mi WNW 3.5 mph - N/A   Overcast
7:35 PM 21.2 °F - 17.6 °F 86% 30.41 in 10.0 mi Calm Calm - N/A   Overcast
7:55 PM 21.2 °F 16.4 °F 17.6 °F 86% 30.41 in 10.0 mi West 3.5 mph - N/A   Mostly Cloudy
8:15 PM 19.4 °F - 17.6 °F 93% 30.40 in 10.0 mi Calm Calm - N/A   Scattered Clouds
8:35 PM 19.4 °F 14.3 °F 17.6 °F 93% 30.40 in 10.0 mi WNW 3.5 mph - N/A   Clear
8:55 PM 17.6 °F 12.3 °F 14.0 °F 86% 30.40 in 10.0 mi WNW 3.5 mph - N/A   Clear
9:15 PM 17.6 °F 12.3 °F 15.8 °F 93% 30.39 in 10.0 mi WNW 3.5 mph - N/A   Clear
9:35 PM 17.6 °F - 15.8 °F 93% 30.39 in 10.0 mi Calm Calm - N/A   Clear
9:55 PM 17.6 °F - 15.8 °F 93% 30.39 in 10.0 mi Calm Calm - N/A   Clear
10:15 PM 17.6 °F - 15.8 °F 93% 30.39 in 7.0 mi Calm Calm - N/A   Clear
10:35 PM 17.6 °F - 15.8 °F 93% 30.39 in 7.0 mi Calm Calm - N/A   Clear
10:55 PM 17.6 °F - 14.0 °F 86% 30.38 in 7.0 mi Calm Calm - N/A   Clear
11:15 PM 17.6 °F - 14.0 °F 86% 30.39 in 7.0 mi Calm Calm - N/A   Clear
11:35 PM 17.6 °F - 15.8 °F 93% 30.39 in 7.0 mi Calm Calm - N/A   Clear
11:55 PM 17.6 °F - 15.8 °F 93% 30.39 in 7.0 mi Calm Calm - N/A   Clear